星链-32790 (STARLINK-32790)

导读

STARLINK-32790是美国SpaceX星链星座的成员卫星,于2025年2月18日发射升空,属于星链网络低轨卫星互联网项目的组网卫星。它延续星链卫星设计,承担全球高速互联网接入服务任务,可覆盖偏远地区,补充全球网络覆盖,进一步完善星链低轨卫星通信星座的服务能力与组网规模。

基本信息
目录编号:
63048
目录名称:
STARLINK-32790
国际标识:
2025-034V
轨道中心:
EARTH
卫星名称:
星链-32790
卫星全名:
星链-32790 (STARLINK-32790)
卫星状态:
在轨 (已飞行564 天)
发射日期:
2025-02-18 UTC
国别 :
美国 (US)
星等 :
--
轨道信息
数据来源 国际轨道数据
星历时间: 2026-09-05T10:08:48+0800
9小时前
查看轨道信息
半长轴: 6840.956km
偏心率: 0.0001536
轨道倾角: 53.158°
近地点辐角 93.164°
升交点赤经 141.999°
平近点角 266.954°
近地点: 461.768km
远地点: 463.87km
周期: 93.850分钟
每日圈数: 15.343613
详细信息
固有亮度:
5
最大亮度:
2.5
卫星平台:
Starlink V1.0
覆盖范围:
全球
运营商:
太空探索技术公司
运营商所在国:
美国
制造商(研发单位):
太空探索技术公司
制造商所在国:
美国
使用方式:
暂无
卫星简介
Starlink 计划是 SpaceX 推出的全球卫星互联网项目,通过发射低轨道卫星,为全球尤其是偏远地区提供高速、低延迟的互联网服务。自 2019 年起,Starlink 已部署数千颗卫星,旨在缩小全球数字鸿沟,推动互联网普及。该项目还为军事、航空等行业提供通信支持,带来广泛经济效益。
2D轨道图
3D轨道图
轨道高度分析图
轨道倾角分析图
轨道综合分析图
查看轨道综合分析图
交会数据列表
事件ID 空间交会对象 最接近时刻(TCA) 交会距离 交会风险概率(CRP) 交会风险指数(CRI) 操作
CDM_260906-075606-190106-304821
OBJECT H (61901)
2026-09-06T
07:56:38+0000
2.651 km
极远距离
1.584077E-6 低风险 0.39
CDM_260830-190606-304806-606121
2026-08-30T
19:06:56+0000
2.614 km
极远距离
4.307228E-7 极低风险 0.28